CW0179 Weather Reports


time (UTC)temp
C
wind
direction
speed
KPH
gust
KPH
rain 1hr
cm
rain 24hr
cm
rain mn
cm
humidity
%
barometer
mb
20260510224908 17 85 0.0 0.0 0.00 0.08 0.00 87 1012.4
20260510223905 17 84 0.0 0.0 0.00 0.13 0.00 87 1012.3
20260510222902 17 83 0.0 1.6 0.00 0.13 0.00 87 1012.2
20260510221927 17 84 0.0 0.0 0.00 0.25 0.00 88 1012.0
20260510220938 17 84 0.0 0.0 0.00 0.30 0.00 87 1012.2
20260510215905 17 84 0.0 0.0 0.00 0.33 0.00 85 1012.3
20260510213836 19 134 0.0 0.0 0.00 0.33 0.00 85 1012.1
20260510211656 20 134 0.0 0.0 0.00 0.36 0.00 80 1011.8
20260510210706 20 134 0.0 0.0 0.00 0.36 0.00 79 1011.8
20260510205635 20 134 0.0 0.0 0.00 0.38 0.00 77 1011.7
20260510204627 20 134 0.0 0.0 0.00 0.41 0.00 78 1011.7
20260510203623 20 134 0.0 0.0 0.00 0.46 0.00 76 1011.6
20260510202638 21 123 0.0 0.0 0.00 0.48 0.00 74 1011.8
20260510201702 21 119 0.0 0.0 0.00 0.48 0.00 73 1011.7
20260510195528 20 147 0.0 0.0 0.00 0.51 0.00 80 1011.6
20260510194534 19 148 0.0 0.0 0.00 0.53 0.00 80 1011.8
20260510192336 18 342 0.0 0.0 0.00 0.58 0.00 80 1012.1
20260510191346 19 25 0.0 0.0 0.00 0.64 0.00 78 1012.2
20260510190342 19 78 0.0 1.6 0.00 0.69 0.00 79 1012.1
20260510185321 18 136 0.0 0.0 0.00 0.71 0.00 82 1012.3
20260510184342 18 8 0.0 0.0 0.00 0.74 0.00 80 1012.3
20260510183346 19 72 0.0 3.2 0.00 0.76 0.00 77 1012.2
20260510182319 20 177 0.0 0.0 0.00 0.79 0.00 74 1012.1
20260510181325 20 163 0.0 0.0 0.00 0.81 0.00 75 1012.1
20260510180321 20 103 0.0 0.0 0.00 0.86 0.00 75 1012.1
20260510175333 20 172 0.0 0.0 0.00 0.86 0.00 78 1012.2
20260510174342 19 76 0.0 3.2 0.00 0.86 0.00 79 1012.4
20260510173313 18 124 0.0 3.2 0.00 0.86 0.00 81 1012.4
20260510172251 18 41 0.0 0.0 0.00 0.86 0.00 81 1012.4
20260510171251 17 342 0.0 3.2 0.00 0.86 0.00 83 1012.4
20260510170233 17 161 0.0 4.8 0.00 0.86 0.00 83 1012.5
20260510163017 16 70 0.0 3.2 0.00 0.86 0.00 87 1012.7
20260510162009 16 114 0.0 3.2 0.00 0.86 0.00 87 1012.7
20260510160939 16 139 0.0 0.0 0.00 0.86 0.00 87 1012.7
20260510155925 16 153 0.0 3.2 0.00 0.86 0.00 87 1012.7
20260510154923 16 93 0.0 1.6 0.00 0.86 0.00 87 1012.7
20260510151540 15 188 0.0 0.0 0.00 0.86 0.00 91 1013.1
20260510150525 15 195 0.0 0.0 0.00 0.86 0.00 90 1013.1
20260510145534 14 122 0.0 0.0 0.00 0.86 0.00 91 1013.2
20260510144511 14 121 0.0 0.0 0.00 0.86 0.00 91 1013.1
20260510143456 13 145 0.0 0.0 0.00 0.86 0.00 93 1012.9
20260510141314 13 141 0.0 0.0 0.00 0.86 0.00 95 1012.6
20260510140316 13 141 0.0 0.0 0.00 0.86 0.00 96 1012.6
20260510135314 12 143 0.0 0.0 0.00 0.86 0.00 96 1012.7
20260510134329 12 143 0.0 0.0 0.00 0.86 0.00 96 1012.6
20260510133257 12 143 0.0 0.0 0.00 0.86 0.00 96 1012.6
20260510132223 12 148 0.0 0.0 0.00 0.86 0.00 96 1012.4
20260510131216 12 180 0.0 0.0 0.00 0.86 0.00 97 1012.4
20260510130150 12 180 0.0 0.0 0.00 0.86 0.00 97 1012.4
20260510125147 12 179 0.0 0.0 0.00 0.86 0.00 98 1012.4
20260510123011 12 181 0.0 0.0 0.00 0.86 0.00 98 1012.1
20260510122021 12 51 0.0 0.0 0.00 0.89 0.00 98 1011.9
20260510121039 12 51 0.0 0.0 0.00 0.89 0.00 98 1011.9
20260510120040 12 51 0.0 0.0 0.00 0.89 0.00 98 1011.8
20260510115021 12 51 0.0 0.0 0.00 0.89 0.00 98 1011.9
20260510113950 11 163 0.0 0.0 0.00 0.89 0.00 98 1011.6
20260510112936 11 163 0.0 0.0 0.00 0.89 0.00 98 1011.6
20260510111904 11 163 0.0 0.0 0.00 0.89 0.00 98 1011.5
20260510110910 11 163 0.0 0.0 0.00 0.89 0.00 98 1011.5
20260510105904 11 163 0.0 0.0 0.00 0.89 0.00 99 1011.6
20260510104915 11 163 0.0 0.0 0.00 0.89 0.00 99 1011.5
20260510103854 11 163 0.0 0.0 0.00 0.89 0.00 99 1011.4
20260510102835 10 163 0.0 0.0 0.00 0.89 0.00 98 1011.3
20260510101858 10 163 0.0 0.0 0.00 0.89 0.00 98 1011.5
20260510100824 10 163 0.0 0.0 0.00 0.89 0.00 98 1011.4
20260510095837 11 163 0.0 0.0 0.00 0.89 0.00 98 1011.4
20260510094901 11 163 0.0 0.0 0.00 0.89 0.00 98 1011.5
20260510093912 10 163 0.0 0.0 0.00 0.89 0.00 98 1011.5
20260510092851 11 163 0.0 0.0 0.00 0.89 0.00 98 1011.6
20260510091857 11 163 0.0 0.0 0.00 0.89 0.00 98 1011.6
20260510090830 11 163 0.0 0.0 0.00 0.89 0.00 98 1011.6
20260510085804 11 152 0.0 0.0 0.00 0.89 0.00 98 1011.7
20260510084745 11 205 0.0 3.2 0.00 0.89 0.00 98 1011.7
20260510083748 11 338 0.0 0.0 0.00 0.89 0.00 98 1011.7
20260510082804 11 337 0.0 0.0 0.00 0.89 0.00 98 1011.7
20260510081735 11 337 0.0 0.0 0.00 0.89 0.00 98 1011.3
20260510080722 11 338 0.0 0.0 0.00 0.89 0.00 98 1010.9
20260510075709 11 337 0.0 0.0 0.00 0.89 0.00 98 1010.7
20260510074702 11 337 0.0 0.0 0.00 0.89 0.00 98 1010.7
20260510073728 11 338 0.0 0.0 0.00 0.89 0.00 98 1010.7
20260510072706 11 337 0.0 0.0 0.00 0.89 0.00 98 1010.8
20260510071713 11 338 0.0 0.0 0.00 0.91 0.00 98 1010.9
20260510070731 11 337 0.0 0.0 0.00 0.91 0.00 98 1010.8
20260510064537 11 337 0.0 0.0 0.00 0.91 0.00 98 1010.8
20260510063547 11 337 0.0 0.0 0.00 0.91 0.00 98 1010.8
20260510062536 11 337 0.0 0.0 0.00 0.91 0.00 98 1010.7
20260510061552 11 337 0.0 0.0 0.00 0.91 0.00 98 1010.5
20260510060611 11 337 0.0 0.0 0.00 0.91 0.00 98 1010.6
20260510055624 11 337 0.0 0.0 0.00 0.91 0.00 98 1010.5
20260510053517 11 337 0.0 0.0 0.00 0.91 0.00 98 1010.8
20260510052540 11 338 0.0 0.0 0.00 0.91 0.00 98 1010.8
20260510051524 11 336 0.0 0.0 0.00 0.91 0.00 98 1010.9
20260510050503 11 335 0.0 0.0 0.00 0.91 0.00 98 1010.8
20260510045502 11 337 0.0 0.0 0.00 0.91 0.00 98 1010.8
20260510044429 11 337 0.0 0.0 0.00 0.91 0.00 98 1010.7
20260510043415 11 338 0.0 0.0 0.00 0.91 0.00 98 1010.8
20260510042416 11 337 0.0 0.0 0.00 0.91 0.00 98 1010.8
20260510041434 11 337 0.0 0.0 0.00 0.91 0.00 98 1010.7
20260510040421 11 337 0.0 0.0 0.00 0.91 0.00 98 1010.5
20260510034333 12 335 0.0 0.0 0.00 0.91 0.94 98 1010.3
20260510033344 12 335 0.0 0.0 0.00 0.91 0.94 98 1010.4
20260510032337 12 335 0.0 0.0 0.00 0.91 0.94 98 1010.2
20260510031328 12 335 0.0 0.0 0.00 0.91 0.94 98 1010.4
20260510030259 12 335 0.0 0.0 0.00 0.91 0.94 98 1010.5
20260510024156 12 336 0.0 0.0 0.00 0.91 0.94 98 1010.6
20260510023125 12 335 0.0 0.0 0.00 0.91 0.94 98 1010.7
20260510022145 12 335 0.0 0.0 0.00 0.91 0.94 98 1010.6
20260510020014 12 340 0.0 0.0 0.00 0.91 0.94 98 1010.6
20260510014957 12 340 0.0 0.0 0.00 0.91 0.94 98 1010.4
20260510012834 12 340 0.0 0.0 0.00 0.91 0.94 98 1010.2
20260510011804 12 340 0.0 0.0 0.00 0.91 0.94 98 1010.0
20260510010731 12 340 0.0 0.0 0.00 0.91 0.94 97 1010.1
20260510005709 12 339 0.0 0.0 0.00 0.91 0.94 97 1010.0
20260510004726 12 340 0.0 0.0 0.00 0.91 0.94 97 1010.0
20260510003726 12 340 0.0 0.0 0.00 0.91 0.94 98 1009.9
20260510002658 12 340 0.0 0.0 0.00 0.91 0.94 98 1009.9
20260510001623 12 340 0.0 0.0 0.00 0.91 0.94 97 1009.8
20260509235425 13 340 0.0 0.0 0.00 0.91 0.94 97 1009.8
20260509233324 13 340 0.0 0.0 0.00 0.91 0.94 97 1009.7
20260509231149 13 340 0.0 0.0 0.13 0.91 0.94 97 1009.7
20260509230209 13 340 0.0 0.0 0.25 0.91 0.94 97 1009.4